Location: Ward Pound Ridge Reservation
(41.2500°N, 73.6000°W)
Time: 11:01:06
(UTC-04:00)

Tiangong 2 - Pass Details

Date: 11 October 2017
Orbit: 388 x 392 km, 42.8° (Epoch: 18 October)

Event Time Altitude Azimuth Distance (km) Brightness Sun altitude
Exits shadow 06:11:07 16° 264° (W) 1,117 2.7 -10.4°
Maximum altitude 06:13:34 77° 349° (N) 404 1.1 -9.9°
Drops below altitude 10° 06:16:47 10° 77° (ENE) 1,424 5.4 -9.3°
Sets 06:18:52 0° 79° (ENE) 2,281 6.9 -8.9°
